User: anonymous   Login
Location: Unspecified
(0.0000°N, 0.0000°E)
Time: 11:43:05
(UTC+00:00)
Language:

CHUBUSAT 1 - Orbit

View from above orbital plane
View from above orbital plane
View from above satellite
View from above satellite

Ground track
Ground track

The orbit data is extracted from the following two-line orbital elements,

1 40300U 14070C   23271.09028851  .00018746  00000-0  53512-3 0  9992
2 40300  97.1273 313.9137 0012658 290.4408  69.5477 15.35992583494133
Epoch (UTC): 28 September 2023 02:10:00
Eccentricity: 0.0012658
inclination: 97.1273°
perigee height: 449 km
apogee height: 466 km
right ascension of ascending node: 313.9137°
argument of perigee: 290.4408°
revolutions per day: 15.35992583
mean anomaly at epoch: 69.5477°
orbit number at epoch: 49413

The dashed part of the orbit path shows where the satellite is in the earth's shadow,  

DLR